Evansville Regional Airport
KEVV : now visible

Airfield :











YOU CAN JOIN US ON...

 
LOGIN :

Register | Disclaimer

   EN    FR    IT 

 









Legend :    VFR   Marginal VFR   IFR   Intensive IFR   Very Intensive IFR
Visi :
Ceiling :
>= 8 km
>= 3000ft
5 to 8 km
1000 to 3000 ft
1500m to 5 km
500 to 1000 ft
800 to 1500m
200 to 500 ft
< 800m
< 200 ft
Symbols :   Thunderstorms  Fog  Heavy snow  Heavy precipitations  Wind > 20 kt






- Airport Elevation : 418 ft
- IATA code : EVV


KEVV - Evansville Regional

CURRENT METAR :
  • 171854Z 28009KT 10SM OVC022 M01/M05 A2996 RMK AO2 SLP149 T10061050

EXPIRED METARs :
  • 171754Z 31008G16KT 10SM OVC019 M01/M05 A2994 RMK AO2 SLP141 T10061050 11006 21028 50002
  • 171654Z 29009G17KT 240V310 10SM OVC018 M01/M04 A2995 RMK AO2 SLP147 T10111044

TAF KEVV
Valid from the 17 at 18:00 until the 18 at 18:00 UTC


171730Z 1718/1818 29012KT P6SM OVC018
FM171900 30013KT P6SM BKN025
FM180000 27007KT P6SM SCT035
FM181700 19011G19KT P6SM FEW250
KZID FIR / North America



MET'MAP, your aeronautical weather chart ! - Copyright ORBIFLY December 2007 - Disclaimer

ORBIFLY MET'MAP TEAM :

Programming & Development : Alexandra Zaïnal
Concept & original design : Baudouin d'Aumeries
Assistance for programming : Marc-Olivier Méhu
Technical & hardware support : Manuel Goepfert

Contact : metmap@orbifly.com




SOURCES & CREDITS :

   NOAA       Earth
Advisory